Weather in Podvyaz'e

Russia / Ryazan Oblast     54°35′23″N   39°32′29″E
temp.,
°C
wind,
m/s
gust,
m/s
humid.,
%
clouds,
%
prec.,
mm/h
press.,
hPa
HPBL,
m
1 march, mon
mon100:00−5ne2396100 0.0 1021108
03:00−10nne229488 0.0 102321
06:00−12nnw12960 0.0 102421
09:00−10wnw11950 0.0 102521
12:00−5wsw35943 0.0 1025235
15:00−2wsw589537 0.0 1023463
18:00−2wsw51091100 0.0 1021524
21:00−1w61293100 0.1 1019536
2 march, tue
tue200:00+1w61293100 0.0 1016529
03:00+1wsw61293100 0.0 1014558
06:00+1w61393100 0.0 1011668
09:00+1w61298100 0.1 1010550
12:00+1nw612100100 0.1 1008659
15:00+1nw6129086 0.2 1008757
18:000nw51188100 0.1 1008545
21:00−1nw51189100 0.1 1010525
3 march, wed
wed300:00−2nw61392100 0.2 1010479
03:00−3nw71490100 0.3 1011735
06:00−6nw6148899 0.0 1012646
09:00−6nw7139094 0.1 1015734
12:00−4nnw7118161 0.0 1015893
15:00−2nw6108664 0.1 1015911
18:00−2wnw51191100 0.1 1014677
21:00−2w51289100 0.2 1015557
4 march, thu
thu400:00−4w5119399 0.1 1014334
03:00−3wsw6129298 0.1 1012458
06:00−3wsw71589100 0.0 1008479
09:00−2wsw9188997 0.0 1005547
12:00+1wsw91684100 0.0 10021032
15:00+1wsw81587100 0.0 10001090
18:000w91692100 0.0 9981026
21:000w81590100 0.2 999774
5 march, fri
fri500:00−3nw51286100 0.4 1001426
03:00−7nw489467 0.4 1005161
06:00−9nw33950 0.0 100848
09:00−8nw23954 0.0 101092
12:00−5nw22880 0.0 1011310
15:00−4wnw128641 0.0 1012420
18:00−5sw1191100 0.0 101321
21:00−7sse1190100 0.0 101421